Back to catalog

STARLINK-36461

AliveCommunicationsVLEO
NORAD 67316·PAYLOAD·🇺🇸 United States

Launched Jan 4, 2026 from Cape Canaveral Space Force Station

Loading…

Next Passes (next 24 hours)

TLE

FreshSource: CelesTrak SupGP

Epoch: Sep 15, 2026, 03:27 UTC

1 67316C 26002M   26258.14423611  .00042197  00000+0  15280-2 0  2586
2 67316  43.0026 335.0530 0001383 264.1646 205.7150 15.27564429    19

Track STARLINK-36461 in real time with AllMySat

Download on the App Store